User: anonymous   Login
Location: ActonStarParty
(42.4766°N, 71.4538°W)
Time: 02:40:08
(UTC-04:00)
Language:

Cosmos 1300 - Orbit

View from above orbital plane
View from above orbital plane
View from above satellite
View from above satellite

Ground track
Ground track

The orbit data is extracted from the following two-line orbital elements,

1 12785U 81082A   14295.48495784  .00007937  00000-0  46101-3 0  8497
2 12785 082.5038 308.6774 0002234 066.2713 093.3641 15.11979733805153
Epoch (UTC): 22 October 2014 11:38:20
Eccentricity: 0.0002234
inclination: 82.5038°
perigee height: 528 km
apogee height: 532 km
right ascension of ascending node: 308.6774°
argument of perigee: 66.2713°
revolutions per day: 15.11979733
mean anomaly at epoch: 93.3641°
orbit number at epoch: 80515

The dashed part of the orbit path shows where the satellite is in the earth's shadow,  

DLR